Gogerbank, United Kingdom

11:38 AM GMT on December 05, 2016 (GMT +0000)
Edinburgh Airport

Weather History for EGPH - April, 2013

Change the Weather History Date:

Friday, April 12, 2013

  Actual Average Record
Temperature  
Mean Temperature 40 °F -  
Max Temperature 44 °F 51 °F 62 °F (1997)
Min Temperature 37 °F 36 °F 30 °F (2009)
Degree Days  
Heating Degree Days 24    
Moisture  
Dew Point 36 °F    
Average Humidity 85    
Maximum Humidity 93    
Minimum Humidity 76    
Precipitation  
Precipitation 0.00 in - - ()
Sea Level Pressure  
Sea Level Pressure 29.48 in    
Wind  
Wind Speed 8 mph ()    
Max Wind Speed 14 mph    
Max Gust Speed -    
Visibility 6.1 miles    
Events Rain    
Averages and records for this station are not official NWS values.
T = Trace of Precipitation, MM = Missing Value Source: Averaged Metar Reports

Daily Weather History Graph

Daily Weather History Graph

Search for Another Location

Airport or City:

Trip Planner

Search our weather history database for the weather conditions in past years. The results will help you decide how hot, cold, wet, or windy it might be!

Date:

Astronomy

Apr. 12, 2013 Rise Set
Actual Time 6:15 AM BST 8:14 PM BST
Civil Twilight 5:35 AM BST 8:54 PM BST
Nautical Twilight 4:45 AM BST 9:44 PM BST
Astronomical Twilight 3:47 AM BST 10:43 PM BST
Moon 6:54 AM BST (4/12) 10:58 PM BST (4/12)
Length of Visible Light 15h 18m
Length of Day
13h 58m
Waxing Crescent, 4% of the Moon is Illuminated
Apr 12
Waxing Crescent
Apr 18
First Quarter
Apr 25
Full
May 2
Last Quarter
May 10
New

Hourly Weather History & Observations

Time (BST) Temp. Windchill Dew Point Humidity Pressure Visibility Wind Dir Wind Speed Gust Speed Precip Events Conditions
12:20 AM 37.4 °F 31.4 °F 32.0 °F 81% 29.42 in 6.2 mi East 8.1 mph - N/A   Overcast
12:50 AM 37.4 °F 32.1 °F 32.0 °F 81% 29.42 in 6.2 mi East 6.9 mph - N/A   Overcast
1:20 AM 37.4 °F 32.1 °F 32.0 °F 81% 29.42 in 6.2 mi ENE 6.9 mph - N/A   Overcast
1:50 AM 37.4 °F 32.1 °F 32.0 °F 81% 29.42 in 6.2 mi ENE 6.9 mph - N/A Rain Light Rain
2:20 AM 37.4 °F 32.1 °F 33.8 °F 87% 29.42 in 6.2 mi NE 6.9 mph - N/A Rain Light Rain
2:50 AM 37.4 °F 31.4 °F 33.8 °F 87% 29.42 in 6.2 mi NE 8.1 mph - N/A   Overcast
3:20 AM 37.4 °F 31.4 °F 33.8 °F 87% 29.42 in 6.2 mi ENE 8.1 mph - N/A   Overcast
3:50 AM 37.4 °F 32.1 °F 33.8 °F 87% 29.42 in 6.2 mi NE 6.9 mph - N/A   Overcast
4:20 AM 37.4 °F 31.4 °F 33.8 °F 87% 29.39 in 6.2 mi ENE 8.1 mph - N/A   Overcast
4:50 AM 37.4 °F 32.1 °F 33.8 °F 87% 29.39 in 6.2 mi NE 6.9 mph - N/A   Overcast
5:20 AM 37.4 °F 31.4 °F 33.8 °F 87% 29.39 in 6.2 mi ENE 8.1 mph - N/A   Overcast
5:50 AM 37.4 °F 31.4 °F 33.8 °F 87% 29.42 in 6.2 mi ENE 8.1 mph - N/A   Overcast
6:20 AM 37.4 °F 32.1 °F 33.8 °F 87% 29.42 in 6.2 mi ENE 6.9 mph - N/A   Overcast
6:50 AM 39.2 °F 33.6 °F 33.8 °F 81% 29.42 in 6.2 mi ENE 8.1 mph - N/A   Overcast
7:20 AM 39.2 °F 33.6 °F 35.6 °F 87% 29.42 in 6.2 mi ENE 8.1 mph - N/A   Mostly Cloudy
7:50 AM 39.2 °F 33.6 °F 35.6 °F 87% 29.42 in 6.2 mi ENE 8.1 mph - N/A   Mostly Cloudy
8:20 AM 39.2 °F 33.6 °F 35.6 °F 87% 29.42 in 6.2 mi ENE 8.1 mph - N/A   Mostly Cloudy
8:50 AM 41.0 °F 35.2 °F 35.6 °F 81% 29.42 in 6.2 mi ENE 9.2 mph - N/A   Mostly Cloudy
9:20 AM 41.0 °F 35.2 °F 35.6 °F 81% 29.42 in 6.2 mi ENE 9.2 mph - N/A   Mostly Cloudy
9:50 AM 41.0 °F 34.7 °F 35.6 °F 81% 29.42 in 6.2 mi NE 10.4 mph - N/A   Mostly Cloudy
10:20 AM 41.0 °F 34.7 °F 35.6 °F 81% 29.44 in 6.2 mi NE 10.4 mph - N/A   Mostly Cloudy
10:50 AM 42.8 °F 36.6 °F 35.6 °F 76% 29.44 in 6.2 mi NE 11.5 mph - N/A   Mostly Cloudy
11:20 AM 42.8 °F 36.6 °F 35.6 °F 76% 29.44 in 6.2 mi NE 11.5 mph - N/A   Mostly Cloudy
11:50 AM 42.8 °F 36.2 °F 37.4 °F 81% 29.44 in 6.2 mi ENE 12.7 mph - N/A   Overcast
12:20 PM 42.8 °F 35.8 °F 37.4 °F 81% 29.44 in 6.2 mi ENE 13.8 mph - N/A   Overcast
12:50 PM 42.8 °F 35.8 °F 37.4 °F 81% 29.47 in 6.2 mi ENE 13.8 mph - N/A   Mostly Cloudy
1:20 PM 44.6 °F 38.4 °F 37.4 °F 76% 29.47 in 6.2 mi ENE 12.7 mph - N/A   Mostly Cloudy
1:50 PM 44.6 °F 38.4 °F 37.4 °F 76% 29.47 in 6.2 mi ENE 12.7 mph - N/A   Mostly Cloudy
2:20 PM 44.6 °F 38.4 °F 37.4 °F 76% 29.47 in 6.2 mi ENE 12.7 mph - N/A   Overcast
2:50 PM 42.8 °F 35.8 °F 37.4 °F 81% 29.50 in 6.2 mi ENE 13.8 mph - N/A   Overcast
3:20 PM 42.8 °F 36.2 °F 37.4 °F 81% 29.50 in 6.2 mi NE 12.7 mph - N/A   Overcast
3:50 PM 42.8 °F 36.2 °F 37.4 °F 81% 29.50 in 6.2 mi NE 12.7 mph - N/A   Overcast
4:20 PM 41.0 °F 34.3 °F 37.4 °F 87% 29.53 in 6.2 mi NE 11.5 mph - N/A   Overcast
4:50 PM 41.0 °F 33.5 °F 37.4 °F 87% 29.53 in 6.2 mi NE 13.8 mph - N/A Rain Light Rain
5:20 PM 41.0 °F 33.9 °F 37.4 °F 87% 29.53 in 6.2 mi NE 12.7 mph - N/A   Overcast
5:50 PM 41.0 °F 33.9 °F 37.4 °F 87% 29.53 in 6.2 mi NE 12.7 mph - N/A Rain Light Rain
6:20 PM 41.0 °F 34.7 °F 37.4 °F 87% 29.56 in 6.2 mi NE 10.4 mph - N/A Rain Light Rain
6:50 PM 41.0 °F 35.2 °F 37.4 °F 87% 29.56 in 6.2 mi NE 9.2 mph - N/A Rain Light Rain
7:20 PM 41.0 °F 35.8 °F 37.4 °F 87% 29.56 in 5.6 mi NE 8.1 mph - N/A Rain Light Rain
7:50 PM 41.0 °F 35.2 °F 37.4 °F 87% 29.59 in 6.2 mi NE 9.2 mph - N/A Rain Light Rain
8:20 PM 39.2 °F 33.0 °F 37.4 °F 93% 29.59 in 6.2 mi NE 9.2 mph - N/A Rain Light Rain
8:50 PM 39.2 °F 33.0 °F 37.4 °F 93% 29.62 in 5.6 mi NE 9.2 mph - N/A Rain Light Rain
9:20 PM 39.2 °F 33.6 °F 37.4 °F 93% 29.62 in 6.2 mi NE 8.1 mph - N/A Rain Light Rain
9:50 PM 39.2 °F 34.2 °F 37.4 °F 93% 29.62 in 5.6 mi NE 6.9 mph - N/A Rain Light Rain
10:20 PM 39.2 °F 34.2 °F 37.4 °F 93% 29.62 in 5.6 mi ENE 6.9 mph - N/A Rain Light Rain
10:50 PM 39.2 °F 35.0 °F 37.4 °F 93% 29.62 in 5.6 mi ENE 5.8 mph - N/A Rain Light Rain
11:20 PM 39.2 °F 37.0 °F 37.4 °F 93% 29.65 in 5.6 mi ENE 3.5 mph - N/A Rain Light Rain
11:50 PM 39.2 °F - 37.4 °F 93% 29.65 in 5.6 mi NE 2.3 mph - N/A   Light Drizzle